Satellite-Ground Cal/Val Region Overpasses Predictions

Prediction of Satellite NPP Overpassing Cal/Val Region: PacNW

Region Location: (Latitude: 10.00, Longitude: 139.50) to (Latitude: 22.70, Longitude: 165.60).

Table of predicted overpasses for the next 14.0 days since TLE Epoch: 12/22/2017
Interval Starting Time Starting Location Ending Time Ending Location
1 12/23/2017 02:45:58 ( 10.06, 158.21) 12/23/2017 02:49:33 ( 22.68, 155.21)
2 12/23/2017 15:17:51 ( 22.65, 155.44) 12/23/2017 15:21:26 ( 10.03, 152.44)
3 12/24/2017 02:26:56 ( 10.05, 162.97) 12/24/2017 02:30:31 ( 22.67, 159.97)
4 12/24/2017 14:58:48 ( 22.66, 160.20) 12/24/2017 15:02:23 ( 10.04, 157.20)
5 12/25/2017 02:10:28 ( 19.15, 165.59) 12/25/2017 02:11:28 ( 22.67, 164.73)
6 12/25/2017 03:49:23 ( 10.05, 142.35) 12/25/2017 03:52:47 ( 22.03, 139.51)
7 12/25/2017 14:39:46 ( 22.67, 164.96) 12/25/2017 14:43:21 ( 10.05, 161.96)
8 12/25/2017 16:21:16 ( 22.66, 139.58) 12/25/2017 16:21:21 ( 22.37, 139.51)
9 12/26/2017 03:30:21 ( 10.05, 147.11) 12/26/2017 03:33:56 ( 22.67, 144.11)
10 12/26/2017 16:02:13 ( 22.67, 144.35) 12/26/2017 16:05:48 ( 10.05, 141.34)
11 12/27/2017 03:11:18 ( 10.04, 151.87) 12/27/2017 03:14:53 ( 22.66, 148.87)
12 12/27/2017 15:43:11 ( 22.67, 149.11) 12/27/2017 15:46:46 ( 10.05, 146.11)
13 12/28/2017 02:52:16 ( 10.03, 156.63) 12/28/2017 02:55:51 ( 22.66, 153.63)
14 12/28/2017 15:24:08 ( 22.68, 153.87) 12/28/2017 15:27:44 ( 10.00, 150.85)
15 12/29/2017 02:33:13 ( 10.03, 161.39) 12/29/2017 02:36:48 ( 22.65, 158.39)
16 12/29/2017 15:05:06 ( 22.68, 158.63) 12/29/2017 15:08:42 ( 10.01, 155.61)
17 12/30/2017 02:14:53 ( 12.49, 165.59) 12/30/2017 02:17:46 ( 22.65, 163.15)
18 12/30/2017 03:55:41 ( 10.03, 140.78) 12/30/2017 03:57:14 ( 15.50, 139.51)
19 12/30/2017 14:46:03 ( 22.69, 163.39) 12/30/2017 14:49:39 ( 10.01, 160.37)
20 12/31/2017 03:36:38 ( 10.03, 145.54) 12/31/2017 03:40:13 ( 22.65, 142.54)
21 12/31/2017 14:30:03 ( 12.01, 165.59) 12/31/2017 14:30:37 ( 10.02, 165.13)
22 12/31/2017 16:08:31 ( 22.69, 142.77) 12/31/2017 16:12:07 ( 10.01, 139.76)
23 01/01/2018 03:17:36 ( 10.02, 150.30) 01/01/2018 03:21:11 ( 22.65, 147.30)
24 01/01/2018 15:49:29 ( 22.69, 147.53) 01/01/2018 15:53:05 ( 10.01, 144.52)
25 01/02/2018 02:58:33 ( 10.02, 155.06) 01/02/2018 03:02:08 ( 22.64, 152.06)
26 01/02/2018 15:30:26 ( 22.70, 152.29) 01/02/2018 15:34:02 ( 10.02, 149.28)
27 01/03/2018 02:39:31 ( 10.02, 159.82) 01/03/2018 02:43:07 ( 22.70, 156.80)
28 01/03/2018 15:11:24 ( 22.70, 157.05) 01/03/2018 15:15:00 ( 10.02, 154.04)
29 01/04/2018 02:20:28 ( 10.02, 164.58) 01/04/2018 02:24:04 ( 22.70, 161.56)
30 01/04/2018 14:52:22 ( 22.64, 161.80) 01/04/2018 14:55:57 ( 10.02, 158.80)
31 01/05/2018 03:42:56 ( 10.02, 143.96) 01/05/2018 03:46:31 ( 22.64, 140.96)
32 01/05/2018 14:34:27 ( 18.72, 165.59) 01/05/2018 14:36:55 ( 10.03, 163.56)


NCC Satellite Cal/Val Overpasses Prediction Service
